| time (UTC) | temp F | wind direction | speed MPH | gust MPH | rain 1hr in | rain 24hr in | rain mn in | humidity % | barometer mb |
| 20260506035517 | 48 | 340 | 2.0 | 7.0 | 0.07 | 1.12 | 1.12 | 93 | 1010.7 |
| 20260506034516 | 48 | 319 | 0.0 | 5.0 | 0.09 | 1.11 | 1.11 | 93 | 1010.3 |
| 20260506033522 | 48 | 318 | 1.0 | 3.0 | 0.10 | 1.11 | 1.11 | 93 | 1010.6 |
| 20260506032522 | 48 | 319 | 1.0 | 5.0 | 0.10 | 1.10 | 1.10 | 93 | 1010.6 |
| 20260506031521 | 48 | 330 | 1.0 | 3.0 | 0.07 | 1.08 | 1.08 | 93 | 1010.6 |
| 20260506030521 | 48 | 329 | 0.0 | 5.0 | 0.12 | 1.07 | 1.07 | 93 | 1010.5 |
| 20260506025522 | 48 | 333 | 0.0 | 6.0 | 0.10 | 1.04 | 1.04 | 93 | 1010.1 |
| 20260506024516 | 48 | 335 | 0.0 | 6.0 | 0.11 | 1.02 | 1.02 | 93 | 1009.5 |
| 20260506023536 | 49 | 346 | 0.0 | 7.0 | 0.11 | 1.01 | 1.01 | 93 | 1009.4 |
| 20260506022522 | 49 | 346 | 1.0 | 4.0 | 0.10 | 1.00 | 1.00 | 93 | 1009.8 |
| 20260506021522 | 49 | 338 | 0.0 | 6.0 | 0.11 | 1.00 | 1.00 | 93 | 1009.0 |
| 20260506020521 | 49 | 335 | 2.0 | 5.0 | 0.08 | 0.94 | 0.94 | 93 | 1009.8 |
| 20260506015520 | 49 | 343 | 2.0 | 6.0 | 0.09 | 0.93 | 0.93 | 93 | 1009.4 |
| 20260506014541 | 49 | 324 | 0.0 | 5.0 | 0.14 | 0.91 | 0.91 | 92 | 1008.7 |
| 20260506013516 | 49 | 324 | 0.0 | 5.0 | 0.13 | 0.90 | 0.90 | 93 | 1008.4 |
| 20260506012521 | 49 | 352 | 2.0 | 9.0 | 0.13 | 0.90 | 0.90 | 92 | 1008.5 |
| 20260506011522 | 50 | 344 | 2.0 | 8.0 | 0.12 | 0.89 | 0.89 | 92 | 1008.2 |
| 20260506010522 | 50 | 337 | 1.0 | 5.0 | 0.13 | 0.86 | 0.86 | 92 | 1008.5 |
| 20260506005542 | 50 | 333 | 1.0 | 4.0 | 0.11 | 0.84 | 0.84 | 92 | 1008.8 |
| 20260506004522 | 50 | 4 | 1.0 | 3.0 | 0.04 | 0.77 | 0.77 | 92 | 1008.3 |
| 20260506003521 | 50 | 5 | 0.0 | 3.0 | 0.04 | 0.77 | 0.77 | 92 | 1007.9 |
| 20260506002516 | 50 | 105 | 0.0 | 2.0 | 0.04 | 0.77 | 0.77 | 92 | 1007.5 |
| 20260506001521 | 50 | 107 | 0.0 | 5.0 | 0.04 | 0.77 | 0.77 | 91 | 1007.6 |
| 20260506000521 | 50 | 0.0 | 2.0 | 0.00 | 0.73 | 0.73 | 91 | 1007.6 | |
| 20260505235521 | 51 | 333 | 0.0 | 3.0 | 0.00 | 0.73 | 0.73 | 91 | 1008.0 |
| 20260505234521 | 51 | 334 | 0.0 | 4.0 | 0.00 | 0.73 | 0.73 | 90 | 1008.0 |
| 20260505233542 | 51 | 334 | 0.0 | 5.0 | 0.00 | 0.73 | 0.73 | 90 | 1008.0 |
| 20260505232517 | 51 | 345 | 0.0 | 2.0 | 0.00 | 0.73 | 0.73 | 91 | 1008.2 |
| 20260505231517 | 51 | 347 | 0.0 | 3.0 | 0.00 | 0.73 | 0.73 | 91 | 1007.8 |
| 20260505230521 | 51 | 137 | 0.0 | 3.0 | 0.00 | 0.73 | 0.73 | 91 | 1007.9 |
| 20260505225521 | 51 | 297 | 0.0 | 4.0 | 0.01 | 0.73 | 0.73 | 91 | 1007.4 |
| 20260505224541 | 51 | 328 | 0.0 | 3.0 | 0.01 | 0.73 | 0.73 | 92 | 1007.9 |
| 20260505223521 | 51 | 328 | 0.0 | 4.0 | 0.01 | 0.73 | 0.73 | 92 | 1008.3 |
| 20260505222521 | 51 | 336 | 1.0 | 7.0 | 0.01 | 0.73 | 0.73 | 92 | 1008.3 |
| 20260505221516 | 51 | 320 | 0.0 | 8.0 | 0.01 | 0.73 | 0.73 | 92 | 1008.2 |
| 20260505220521 | 52 | 323 | 0.0 | 8.0 | 0.01 | 0.73 | 0.73 | 93 | 1008.4 |
| 20260505215521 | 52 | 338 | 0.0 | 4.0 | 0.00 | 0.72 | 0.72 | 93 | 1008.5 |
| 20260505214521 | 52 | 350 | 1.0 | 5.0 | 0.01 | 0.72 | 0.72 | 92 | 1008.5 |
| 20260505213522 | 52 | 355 | 1.0 | 7.0 | 0.01 | 0.72 | 0.72 | 92 | 1008.4 |
| 20260505212602 | 52 | 330 | 1.0 | 6.0 | 0.01 | 0.72 | 0.72 | 92 | 1008.2 |
| 20260505211521 | 52 | 330 | 1.0 | 6.0 | 0.02 | 0.72 | 0.72 | 92 | 1008.1 |
| 20260505210536 | 52 | 349 | 4.0 | 12.0 | 0.02 | 0.72 | 0.72 | 92 | 1007.9 |
| 20260505205541 | 52 | 348 | 4.0 | 11.0 | 0.02 | 0.72 | 0.72 | 92 | 1007.9 |
| 20260505204541 | 53 | 333 | 3.0 | 9.0 | 0.01 | 0.71 | 0.71 | 92 | 1008.1 |
| 20260505203521 | 53 | 331 | 2.0 | 11.0 | 0.01 | 0.71 | 0.71 | 92 | 1008.0 |
| 20260505202521 | 54 | 346 | 2.0 | 6.0 | 0.01 | 0.71 | 0.71 | 93 | 1007.9 |
| 20260505201521 | 54 | 343 | 1.0 | 6.0 | 0.00 | 0.70 | 0.70 | 93 | 1007.9 |
| 20260505200516 | 54 | 321 | 2.0 | 6.0 | 0.01 | 0.70 | 0.70 | 93 | 1007.9 |
| 20260505195536 | 54 | 332 | 2.0 | 5.0 | 0.02 | 0.70 | 0.70 | 92 | 1007.8 |
| 20260505194521 | 54 | 304 | 1.0 | 4.0 | 0.07 | 0.70 | 0.70 | 93 | 1007.8 |
| 20260505193521 | 54 | 299 | 1.0 | 4.0 | 0.07 | 0.70 | 0.70 | 93 | 1007.8 |
| 20260505192521 | 54 | 294 | 0.0 | 2.0 | 0.07 | 0.70 | 0.70 | 93 | 1007.8 |
| 20260505191521 | 54 | 294 | 0.0 | 3.0 | 0.07 | 0.70 | 0.70 | 92 | 1007.8 |
| 20260505190521 | 54 | 314 | 0.0 | 2.0 | 0.06 | 0.69 | 0.69 | 92 | 1007.8 |
| 20260505185516 | 54 | 318 | 0.0 | 4.0 | 0.05 | 0.68 | 0.68 | 92 | 1007.6 |
| 20260505184521 | 54 | 329 | 1.0 | 5.0 | 0.00 | 0.63 | 0.63 | 92 | 1007.8 |
| 20260505183521 | 55 | 328 | 1.0 | 4.0 | 0.00 | 0.63 | 0.63 | 92 | 1007.8 |
| 20260505182521 | 55 | 333 | 1.0 | 4.0 | 0.00 | 0.63 | 0.63 | 92 | 1007.8 |
| 20260505181521 | 54 | 337 | 0.0 | 5.0 | 0.00 | 0.63 | 0.63 | 91 | 1007.7 |
| 20260505180521 | 54 | 347 | 1.0 | 5.0 | 0.00 | 0.63 | 0.63 | 90 | 1007.9 |
| 20260505175521 | 55 | 346 | 1.0 | 6.0 | 0.00 | 0.63 | 0.63 | 91 | 1008.0 |
| 20260505174516 | 55 | 350 | 2.0 | 5.0 | 0.00 | 0.63 | 0.63 | 91 | 1008.2 |
| 20260505173521 | 55 | 332 | 1.0 | 5.0 | 0.00 | 0.63 | 0.63 | 91 | 1008.2 |
| 20260505172521 | 55 | 334 | 1.0 | 5.0 | 0.00 | 0.63 | 0.63 | 91 | 1008.0 |
| 20260505171521 | 55 | 333 | 2.0 | 3.0 | 0.00 | 0.63 | 0.63 | 91 | 1008.1 |
| 20260505170541 | 55 | 333 | 0.0 | 3.0 | 0.00 | 0.63 | 0.63 | 91 | 1008.1 |
| 20260505165522 | 55 | 333 | 0.0 | 4.0 | 0.00 | 0.63 | 0.63 | 91 | 1007.9 |
| 20260505164517 | 55 | 332 | 1.0 | 3.0 | 0.00 | 0.63 | 0.63 | 91 | 1007.9 |
| 20260505163516 | 56 | 332 | 0.0 | 3.0 | 0.00 | 0.63 | 0.63 | 91 | 1008.1 |
| 20260505162521 | 56 | 336 | 1.0 | 4.0 | 0.00 | 0.63 | 0.63 | 91 | 1008.0 |
| 20260505161521 | 56 | 337 | 0.0 | 4.0 | 0.00 | 0.63 | 0.63 | 91 | 1007.9 |
| 20260505160541 | 56 | 337 | 0.0 | 5.0 | 0.00 | 0.63 | 0.63 | 90 | 1007.9 |
| 20260505152521 | 60 | 184 | 0.0 | 3.0 | 0.00 | 0.63 | 0.63 | 91 | 1007.6 |
| 20260505151521 | 60 | 183 | 0.0 | 2.0 | 0.00 | 0.63 | 0.63 | 91 | 1007.8 |
| 20260505150521 | 60 | 183 | 0.0 | 3.0 | 0.01 | 0.63 | 0.63 | 91 | 1007.8 |
| 20260505140521 | 60 | 219 | 0.0 | 3.0 | 0.36 | 0.62 | 0.62 | 91 | 1007.8 |
| 20260505124521 | 64 | 185 | 1.0 | 5.0 | 0.00 | 0.00 | 0.00 | 67 | 1007.0 |
| 20260505123521 | 64 | 178 | 0.0 | 2.0 | 0.00 | 0.00 | 0.00 | 68 | 1006.4 |
| 20260505122521 | 64 | 0.0 | 0.0 | 0.00 | 0.00 | 0.00 | 67 | 1006.3 | |
| 20260505121516 | 64 | 0.0 | 0.0 | 0.00 | 0.00 | 0.00 | 68 | 1006.1 | |
| 20260505120521 | 64 | 0.0 | 0.0 | 0.00 | 0.00 | 0.00 | 67 | 1006.0 | |
| 20260505115521 | 64 | 182 | 0.0 | 1.0 | 0.00 | 0.00 | 0.00 | 66 | 1006.1 |
| 20260505114521 | 64 | 182 | 0.0 | 2.0 | 0.00 | 0.00 | 0.00 | 66 | 1006.2 |
| 20260505113521 | 65 | 182 | 0.0 | 4.0 | 0.00 | 0.00 | 0.00 | 65 | 1006.4 |
| 20260505112522 | 65 | 177 | 0.0 | 4.0 | 0.00 | 0.00 | 0.00 | 65 | 1006.3 |
| 20260505111521 | 65 | 177 | 1.0 | 3.0 | 0.00 | 0.00 | 0.00 | 63 | 1006.4 |
| 20260505110516 | 65 | 177 | 0.0 | 3.0 | 0.00 | 0.00 | 0.00 | 63 | 1006.4 |
| 20260505101521 | 65 | 188 | 0.0 | 3.0 | 0.00 | 0.00 | 0.00 | 62 | 1006.0 |
| 20260505100516 | 66 | 197 | 0.0 | 6.0 | 0.00 | 0.00 | 0.00 | 61 | 1006.1 |
| 20260505095516 | 66 | 161 | 1.0 | 6.0 | 0.00 | 0.00 | 0.00 | 62 | 1006.1 |
| 20260505094521 | 66 | 183 | 2.0 | 8.0 | 0.00 | 0.00 | 0.00 | 62 | 1006.1 |
| 20260505093541 | 66 | 187 | 2.0 | 10.0 | 0.00 | 0.00 | 0.00 | 61 | 1006.1 |
| 20260505092521 | 66 | 167 | 2.0 | 10.0 | 0.00 | 0.00 | 0.00 | 61 | 1006.1 |
| 20260505091519 | 66 | 152 | 2.0 | 12.0 | 0.00 | 0.00 | 0.00 | 60 | 1006.1 |
| 20260505090521 | 66 | 180 | 2.0 | 7.0 | 0.00 | 0.00 | 0.00 | 60 | 1006.3 |
| 20260505085516 | 67 | 184 | 2.0 | 7.0 | 0.00 | 0.00 | 0.00 | 60 | 1006.4 |
| 20260505084521 | 67 | 180 | 2.0 | 7.0 | 0.00 | 0.00 | 0.00 | 60 | 1006.6 |
| 20260505083521 | 67 | 185 | 2.0 | 8.0 | 0.00 | 0.00 | 0.00 | 59 | 1006.7 |
| 20260505082521 | 67 | 188 | 2.0 | 9.0 | 0.00 | 0.00 | 0.00 | 59 | 1006.3 |
| 20260505081521 | 67 | 166 | 1.0 | 8.0 | 0.00 | 0.00 | 0.00 | 59 | 1006.3 |
| 20260505080521 | 67 | 185 | 3.0 | 10.0 | 0.00 | 0.00 | 0.00 | 59 | 1006.6 |
| 20260505075516 | 67 | 181 | 3.0 | 10.0 | 0.00 | 0.00 | 0.00 | 59 | 1006.6 |
| 20260505074516 | 67 | 189 | 4.0 | 10.0 | 0.00 | 0.00 | 0.00 | 59 | 1006.4 |
| 20260505073541 | 67 | 189 | 3.0 | 11.0 | 0.00 | 0.00 | 0.00 | 58 | 1006.2 |
| 20260505072521 | 67 | 182 | 3.0 | 11.0 | 0.00 | 0.00 | 0.00 | 58 | 1006.1 |
| 20260505071521 | 68 | 181 | 3.0 | 11.0 | 0.00 | 0.00 | 0.00 | 57 | 1006.1 |
| 20260505070541 | 68 | 185 | 4.0 | 15.0 | 0.00 | 0.00 | 0.00 | 56 | 1006.1 |
| 20260505065521 | 68 | 186 | 4.0 | 15.0 | 0.00 | 0.00 | 0.00 | 55 | 1006.3 |
| 20260505064536 | 68 | 186 | 5.0 | 14.0 | 0.00 | 0.00 | 0.00 | 55 | 1006.4 |
| 20260505063522 | 69 | 187 | 5.0 | 10.0 | 0.00 | 0.00 | 0.00 | 55 | 1006.3 |
| 20260505062521 | 69 | 186 | 4.0 | 12.0 | 0.00 | 0.00 | 0.00 | 55 | 1006.2 |
| 20260505061521 | 69 | 188 | 4.0 | 12.0 | 0.00 | 0.00 | 0.00 | 54 | 1006.2 |
| 20260505060541 | 69 | 188 | 5.0 | 16.0 | 0.00 | 0.00 | 0.00 | 54 | 1006.2 |
| 20260505055521 | 70 | 187 | 6.0 | 17.0 | 0.00 | 0.00 | 0.00 | 53 | 1006.1 |
| 20260505054521 | 70 | 189 | 6.0 | 16.0 | 0.00 | 0.00 | 0.00 | 53 | 1006.0 |
| 20260505053516 | 70 | 179 | 5.0 | 13.0 | 0.00 | 0.00 | 0.00 | 53 | 1006.0 |
| 20260505052521 | 70 | 187 | 5.0 | 12.0 | 0.00 | 0.00 | 0.00 | 53 | 1005.8 |
| 20260505051521 | 70 | 180 | 4.0 | 16.0 | 0.00 | 0.00 | 0.00 | 53 | 1005.6 |
| 20260505050521 | 70 | 183 | 6.0 | 9.0 | 0.00 | 0.00 | 0.00 | 53 | 1006.0 |
| 20260505041516 | 71 | 184 | 5.0 | 17.0 | 0.00 | 0.00 | 0.00 | 52 | 1006.0 |
| 20260505040522 | 71 | 185 | 4.0 | 12.0 | 0.00 | 0.00 | 0.00 | 52 | 1006.0 |